Everett, WA

7:22 AM PDT on March 30, 2017 (GMT -0700)
Snohomish County

Weather History for KPAE - November, 2013

Change the Weather History Date:

Sunday, November 10, 2013

  Actual Average Record
Temperature  
Mean Temperature 45 °F -  
Max Temperature 46 °F 52 °F 68 °F (2016)
Min Temperature 44 °F 39 °F 25 °F (1982)
Degree Days  
Heating Degree Days 20    
Moisture  
Dew Point 43 °F    
Average Humidity 91    
Maximum Humidity 96    
Minimum Humidity 86    
Precipitation  
Precipitation 0.08 in - - ()
Sea Level Pressure  
Sea Level Pressure 30.13 in    
Wind  
Wind Speed 4 mph (North)    
Max Wind Speed 7 mph    
Max Gust Speed -    
Visibility 7 miles    
Events Fog , Rain    
Averages and records for this station are not official NWS values.
T = Trace of Precipitation, MM = Missing Value Source: NWS Daily Summary

Daily Weather History Graph

Daily Weather History Graph

Search for Another Location

Airport or City:

Trip Planner

Search our weather history database for the weather conditions in past years. The results will help you decide how hot, cold, wet, or windy it might be!

Date:

Astronomy

Nov. 10, 2013 Rise Set
Actual Time 7:08 AM PST 4:37 PM PST
Civil Twilight 6:34 AM PST 5:10 PM PST
Nautical Twilight 5:57 AM PST 5:47 PM PST
Astronomical Twilight 5:21 AM PST 6:24 PM PST
Moon 1:14 PM PST (11/10) No Moon Set
Length of Visible Light 10h 35m
Length of Day
9h 29m
First Quarter, 56% of the Moon is Illuminated
Nov 10
First Quarter
Nov 17
Full
Nov 25
Last Quarter
Dec 2
New
Dec 9
First Quarter

Hourly Weather History & Observations

Time (PST) Temp. Windchill Dew Point Humidity Pressure Visibility Wind Dir Wind Speed Gust Speed Precip Events Conditions
12:53 AM 45.0 °F 43.5 °F 41.0 °F 86% 30.12 in 10.0 mi ENE 3.5 mph - 0.01 in Rain Light Rain
1:53 AM 44.1 °F - 41.0 °F 89% 30.12 in 8.0 mi Calm Calm - 0.03 in Rain Light Rain
2:09 AM 44.6 °F 43.1 °F 42.8 °F 93% 30.11 in 1.5 mi NNE 3.5 mph - 0.01 in Rain Light Rain
2:18 AM 44.6 °F 43.1 °F 42.8 °F 93% 30.11 in 0.5 mi NNE 3.5 mph - 0.01 in Fog , Rain Light Rain
2:26 AM 44.6 °F - 42.8 °F 93% 30.11 in 1.0 mi Calm Calm - 0.01 in Rain Light Rain
2:33 AM 44.6 °F 42.2 °F 42.8 °F 93% 30.11 in 1.8 mi NNE 4.6 mph - 0.01 in Rain Light Rain
2:42 AM 44.6 °F 43.1 °F 42.8 °F 93% 30.11 in 0.5 mi Variable 3.5 mph - 0.01 in Fog , Rain Light Rain
2:53 AM 44.1 °F 40.8 °F 42.1 °F 93% 30.12 in 0.5 mi NNE 5.8 mph - 0.01 in Fog , Rain Light Rain
2:58 AM 44.6 °F 42.2 °F 42.8 °F 93% 30.11 in 0.5 mi NNE 4.6 mph - 0.01 in Fog , Rain Light Rain
3:11 AM 44.6 °F 42.2 °F 42.8 °F 93% 30.11 in 0.2 mi NNE 4.6 mph - 0.01 in Fog , Rain Light Rain
3:17 AM 44.6 °F 40.7 °F 42.8 °F 93% 30.11 in 0.5 mi NNE 6.9 mph - 0.01 in Fog , Rain Light Rain
3:21 AM 44.6 °F 41.4 °F 42.8 °F 93% 30.11 in 1.0 mi NNE 5.8 mph - 0.01 in Rain Light Rain
3:48 AM 44.6 °F 42.2 °F 42.8 °F 93% 30.11 in 3.0 mi North 4.6 mph - 0.01 in Rain Light Rain
3:53 AM 44.1 °F 42.5 °F 42.1 °F 93% 30.12 in 6.0 mi North 3.5 mph - 0.01 in   Overcast
4:41 AM 44.6 °F 41.4 °F 42.8 °F 93% 30.11 in 1.8 mi North 5.8 mph - N/A   Overcast
4:53 AM 44.1 °F 40.8 °F 43.0 °F 96% 30.12 in 2.0 mi North 5.8 mph - N/A   Overcast
5:16 AM 44.6 °F 41.4 °F 42.8 °F 93% 30.11 in 4.0 mi North 5.8 mph - N/A   Overcast
5:53 AM 44.1 °F 40.8 °F 42.1 °F 93% 30.12 in 5.0 mi North 5.8 mph - N/A   Overcast
6:34 AM 44.6 °F 41.4 °F 42.8 °F 93% 30.12 in 9.0 mi North 5.8 mph - N/A   Overcast
6:43 AM 44.6 °F 42.2 °F 42.8 °F 93% 30.12 in 9.0 mi North 4.6 mph - N/A   Overcast
6:53 AM 44.1 °F 40.8 °F 42.1 °F 93% 30.13 in 10.0 mi North 5.8 mph - N/A   Overcast
7:15 AM 44.6 °F 42.2 °F 42.8 °F 93% 30.12 in 1.0 mi North 4.6 mph - 0.00 in Rain Light Rain
7:53 AM 44.1 °F 40.8 °F 42.1 °F 93% 30.14 in 8.0 mi North 5.8 mph - 0.01 in   Overcast
8:53 AM 44.1 °F 40.8 °F 42.1 °F 93% 30.15 in 6.0 mi NNW 5.8 mph - 0.00 in Rain Light Rain
9:53 AM 45.0 °F 42.6 °F 43.0 °F 93% 30.16 in 7.0 mi North 4.6 mph - 0.01 in   Overcast
10:53 AM 45.0 °F 42.6 °F 43.0 °F 93% 30.17 in 8.0 mi Variable 4.6 mph - N/A   Overcast
11:53 AM 46.0 °F 44.8 °F 43.0 °F 89% 30.16 in 9.0 mi North 3.5 mph - N/A   Overcast
12:53 PM 46.0 °F 43.9 °F 43.0 °F 89% 30.15 in 10.0 mi North 4.6 mph - N/A   Overcast
1:53 PM 46.0 °F 42.5 °F 43.0 °F 89% 30.15 in 10.0 mi NNW 6.9 mph - N/A   Overcast
2:10 PM 46.4 °F 42.9 °F 42.8 °F 87% 30.14 in 10.0 mi NNW 6.9 mph - N/A   Overcast
2:18 PM 46.4 °F 43.5 °F 42.8 °F 87% 30.14 in 10.0 mi NNW 5.8 mph - N/A   Overcast
2:30 PM 46.4 °F 44.3 °F 42.8 °F 87% 30.14 in 10.0 mi North 4.6 mph - N/A   Overcast
2:53 PM 46.0 °F 43.1 °F 43.0 °F 89% 30.15 in 10.0 mi North 5.8 mph - N/A   Overcast
3:27 PM 46.4 °F 45.2 °F 42.8 °F 87% 30.13 in 10.0 mi North 3.5 mph - N/A   Overcast
3:53 PM 45.0 °F 43.5 °F 42.1 °F 90% 30.15 in 10.0 mi North 3.5 mph - N/A   Overcast
4:00 PM 44.6 °F 42.2 °F 42.8 °F 93% 30.14 in 10.0 mi NNW 4.6 mph - N/A   Overcast
4:14 PM 44.6 °F 41.4 °F 42.8 °F 93% 30.14 in 10.0 mi NNW 5.8 mph - N/A   Overcast
4:53 PM 45.0 °F 41.2 °F 42.1 °F 90% 30.14 in 10.0 mi North 6.9 mph - N/A   Scattered Clouds
5:08 PM 44.6 °F 40.7 °F 42.8 °F 93% 30.14 in 10.0 mi North 6.9 mph - N/A   Mostly Cloudy
5:53 PM 45.0 °F 41.2 °F 42.1 °F 90% 30.14 in 10.0 mi North 6.9 mph - N/A   Mostly Cloudy
6:53 PM 45.0 °F 41.8 °F 42.1 °F 90% 30.15 in 10.0 mi North 5.8 mph - N/A   Overcast
7:53 PM 46.0 °F 43.1 °F 42.1 °F 86% 30.15 in 10.0 mi North 5.8 mph - N/A   Overcast
8:53 PM 45.0 °F 42.6 °F 42.1 °F 90% 30.15 in 10.0 mi NNW 4.6 mph - N/A   Overcast
9:53 PM 46.0 °F 43.1 °F 43.0 °F 89% 30.15 in 10.0 mi North 5.8 mph - N/A   Overcast
10:50 PM 46.4 °F 45.2 °F 42.8 °F 87% 30.14 in 10.0 mi North 3.5 mph - N/A   Overcast
10:53 PM 46.0 °F 44.8 °F 43.0 °F 89% 30.15 in 10.0 mi North 3.5 mph - N/A   Mostly Cloudy
11:53 PM 45.0 °F - 42.1 °F 90% 30.14 in 9.0 mi Calm Calm - N/A   Partly Cloudy